SB KEPS @ AMSAT $ORB06257.O Orbital Elements 06257.OSCAR
HR AMSAT ORBITAL ELEMENTS FOR OSCAR SATELLITES FROM WA5QGD FORT WORTH,TX September 14, 2006 Send SUBSCRIBE KEPS/UNSUBSCRIBE KEPS to [email protected] only BID: ORB06257.O TO ALL RADIO AMATEURS BT
Satellite: AO-07 Catalog number: 07530 Epoch time: 06256.69195448 Element set: 0682 Inclination: 101.5605 deg RA of node: 297.3862 deg Eccentricity: 0.0012162 Arg of perigee: 074.6326 deg Mean anomaly: 285.6088 deg Mean motion: 12.53571499 rev/day Decay rate: -2.8e-07 rev/day^2 Epoch rev: 45647 Checksum: 329
Satellite: UO-11 Catalog number: 14781 Epoch time: 06257.59579248 Element set: 174 Inclination: 098.2071 deg RA of node: 269.7141 deg Eccentricity: 0.0009103 Arg of perigee: 345.3225 deg Mean anomaly: 014.7756 deg Mean motion: 14.79459354 rev/day Decay rate: -4.5e-07 rev/day^2 Epoch rev: 20898 Checksum: 327
Satellite: RS-10/11 Catalog number: 18129 Epoch time: 06257.54315300 Element set: 91 Inclination: 082.9222 deg RA of node: 262.0531 deg Eccentricity: 0.0010673 Arg of perigee: 199.1261 deg Mean anomaly: 160.9493 deg Mean motion: 13.72778568 rev/day Decay rate: 3.3e-07 rev/day^2 Epoch rev: 96341 Checksum: 291
Satellite: RS-15 Catalog number: 23439 Epoch time: 06256.88515242 Element set: 0017 Inclination: 064.8172 deg RA of node: 093.7712 deg Eccentricity: 0.0166478 Arg of perigee: 238.6934 deg Mean anomaly: 119.7598 deg Mean motion: 11.27551952 rev/day Decay rate: -3.9e-07 rev/day^2 Epoch rev: 48254 Checksum: 338
Satellite: FO-29 Catalog number: 24278 Epoch time: 06257.58111483 Element set: 318 Inclination: 098.5173 deg RA of node: 249.7634 deg Eccentricity: 0.0351476 Arg of perigee: 077.8441 deg Mean anomaly: 286.1836 deg Mean motion: 13.52923149 rev/day Decay rate: -9.9e-07 rev/day^2 Epoch rev: 49763 Checksum: 354
Satellite: SO-33 Catalog number: 25509 Epoch time: 06256.66288553 Element set: 0745 Inclination: 031.4326 deg RA of node: 349.1127 deg Eccentricity: 0.0355020 Arg of perigee: 169.9752 deg Mean anomaly: 190.8182 deg Mean motion: 14.28115634 rev/day Decay rate: 3.1e-07 rev/day^2 Epoch rev: 41169 Checksum: 305
Satellite: VO-52 Catalog number: 28650 Epoch time: 06256.75536019 Element set: 0430 Inclination: 097.8638 deg RA of node: 328.1880 deg Eccentricity: 0.0028419 Arg of perigee: 074.2681 deg Mean anomaly: 286.1683 deg Mean motion: 14.81169770 rev/day Decay rate: -1.4e-07 rev/day^2 Epoch rev: 07349 Checksum: 331
/EX SB KEPS @ AMSAT $ORB06257.D Orbital Elements 06257.MICROS
HR AMSAT ORBITAL ELEMENTS FOR THE MICROSATS FROM WA5QGD FORT WORTH,TX September 14, 2006 Send SUBSCRIBE KEPS/UNSUBSCRIBE KEPS to [email protected] only BID: ORB06257.D TO ALL RADIO AMATEURS BT
Satellite: AO-16 Catalog number: 20439 Epoch time: 06256.62518852 Element set: 843 Inclination: 098.1899 deg RA of node: 261.6031 deg Eccentricity: 0.0010325 Arg of perigee: 295.6085 deg Mean anomaly: 064.4026 deg Mean motion: 14.31732596 rev/day Decay rate: -.00000000 rev/day^2 Epoch rev: 86897 Checksum: 310
Satellite: LO-19 Catalog number: 20442 Epoch time: 06257.61857083 Element set: 779 Inclination: 098.1880 deg RA of node: 272.0581 deg Eccentricity: 0.0011082 Arg of perigee: 290.4814 deg Mean anomaly: 069.5203 deg Mean motion: 14.31975886 rev/day Decay rate: 1.39e-06 rev/day^2 Epoch rev: 86925 Checksum: 332
Satellite: AO-27 Catalog number: 22825 Epoch time: 06256.94030688 Element set: 0496 Inclination: 098.2928 deg RA of node: 234.4528 deg Eccentricity: 0.0008962 Arg of perigee: 005.4954 deg Mean anomaly: 354.6300 deg Mean motion: 14.29183020 rev/day Decay rate: -1.4e-07 rev/day^2 Epoch rev: 67603 Checksum: 312
Satellite: IO-26 Catalog number: 22826 Epoch time: 06257.66496071 Element set: 188 Inclination: 098.2870 deg RA of node: 236.3205 deg Eccentricity: 0.0009214 Arg of perigee: 000.7588 deg Mean anomaly: 359.3601 deg Mean motion: 14.29427518 rev/day Decay rate: 1.8e-07 rev/day^2 Epoch rev: 67621 Checksum: 315
Satellite: PO-28 Catalog number: 22829 Epoch time: 06256.91572672 Element set: 0472 Inclination: 098.2769 deg RA of node: 236.8058 deg Eccentricity: 0.0009536 Arg of perigee: 337.1924 deg Mean anomaly: 022.8845 deg Mean motion: 14.30122638 rev/day Decay rate: -5.2e-07 rev/day^2 Epoch rev: 67632 Checksum: 331
Satellite: GO-32 Catalog number: 25397 Epoch time: 06256.70815980 Element set: 0110 Inclination: 098.4571 deg RA of node: 310.3985 deg Eccentricity: 0.0000953 Arg of perigee: 002.5387 deg Mean anomaly: 357.5814 deg Mean motion: 14.23110070 rev/day Decay rate: -1.16e-06 rev/day^2 Epoch rev: 42483 Checksum: 287
Satellite: MO-46 Catalog number: 26548 Epoch time: 06256.65141240 Element set: 594 Inclination: 064.5582 deg RA of node: 318.1106 deg Eccentricity: 0.0043624 Arg of perigee: 234.7449 deg Mean anomaly: 124.9572 deg Mean motion: 14.83016770 rev/day Decay rate: 2.37e-06 rev/day^2 Epoch rev: 32252 Checksum: 300
Satellite: NO-44 Catalog number: 26931 Epoch time: 06256.78932789 Element set: 0402 Inclination: 067.0520 deg RA of node: 139.4597 deg Eccentricity: 0.0005487 Arg of perigee: 251.2915 deg Mean anomaly: 108.7560 deg Mean motion: 14.29451012 rev/day Decay rate: -2.32e-06 rev/day^2 Epoch rev: 25859 Checksum: 317
Satellite: SO-50 Catalog number: 27607 Epoch time: 06257.35146279 Element set: 120 Inclination: 064.5583 deg RA of node: 202.4244 deg Eccentricity: 0.0035835 Arg of perigee: 110.6458 deg Mean anomaly: 249.8483 deg Mean motion: 14.71171293 rev/day Decay rate: 5.2e-07 rev/day^2 Epoch rev: 20054 Checksum: 288
Satellite: CO-57 Catalog number: 27848 Epoch time: 06257.53682501 Element set: 814 Inclination: 098.7210 deg RA of node: 263.8999 deg Eccentricity: 0.0009351 Arg of perigee: 164.5612 deg Mean anomaly: 195.5848 deg Mean motion: 14.20283558 rev/day Decay rate: 6.2e-07 rev/day^2 Epoch rev: 16632 Checksum: 335
Satellite: AO-51 Catalog number: 28375 Epoch time: 06256.70701284 Element set: 0628 Inclination: 098.1563 deg RA of node: 304.6698 deg Eccentricity: 0.0083926 Arg of perigee: 300.5504 deg Mean anomaly: 058.7425 deg Mean motion: 14.40532388 rev/day Decay rate: 1.2e-07 rev/day^2 Epoch rev: 11591 Checksum: 308
Satellite: CO-55 Catalog number: 28941 Epoch time: 06256.80039841 Element set: 0200 Inclination: 098.1722 deg RA of node: 284.0817 deg Eccentricity: 0.0271162 Arg of perigee: 162.6780 deg Mean anomaly: 198.3974 deg Mean motion: 15.27640961 rev/day Decay rate: 2.1048e-04 rev/day^2 Epoch rev: 03106 Checksum: 311
/EX SB KEPS @ AMSAT $ORB06257.W Orbital Elements 06257.WEATHER
HR AMSAT ORBITAL ELEMENTS FOR WEATHER SATELLITES FROM WA5QGD FORT WORTH,TX September 14, 2006 Send SUBSCRIBE KEPS/UNSUBSCRIBE KEPS to [email protected] only BID: ORB06257.W TO ALL RADIO AMATEURS BT
Satellite: NOAA-10 Catalog number: 16969 Epoch time: 06257.10394485 Element set: 346 Inclination: 098.7598 deg RA of node: 268.9284 deg Eccentricity: 0.0011572 Arg of perigee: 251.8315 deg Mean anomaly: 108.1599 deg Mean motion: 14.27302906 rev/day Decay rate: -1.00e-06 rev/day^2 Epoch rev: 3984 Checksum: 328
Satellite: NOAA-11 Catalog number: 19531 Epoch time: 06257.32655744 Element set: 282 Inclination: 098.8242 deg RA of node: 344.7737 deg Eccentricity: 0.0012455 Arg of perigee: 095.7226 deg Mean anomaly: 264.5371 deg Mean motion: 14.14815883 rev/day Decay rate: -1.98e-06 rev/day^2 Epoch rev: 92714 Checksum: 328
Satellite: NOAA-12 Catalog number: 21263 Epoch time: 06257.31789208 Element set: 775 Inclination: 098.7380 deg RA of node: 250.2538 deg Eccentricity: 0.0012479 Arg of perigee: 185.7938 deg Mean anomaly: 174.3113 deg Mean motion: 14.25506667 rev/day Decay rate: -7.7e-07 rev/day^2 Epoch rev: 79694 Checksum: 341
Satellite: MET-3/5 Catalog number: 21655 Epoch time: 06256.94669229 Element set: 0241 Inclination: 082.5584 deg RA of node: 198.0836 deg Eccentricity: 0.0012845 Arg of perigee: 174.1014 deg Mean anomaly: 186.0260 deg Mean motion: 13.17008746 rev/day Decay rate: 5.1e-07 rev/day^2 Epoch rev: 72504 Checksum: 300
Satellite: MET-2/21 Catalog number: 22782 Epoch time: 06256.54638921 Element set: 613 Inclination: 082.5434 deg RA of node: 261.3510 deg Eccentricity: 0.0020981 Arg of perigee: 294.3844 deg Mean anomaly: 065.5122 deg Mean motion: 13.83609771 rev/day Decay rate: -5.1e-07 rev/day^2 Epoch rev: 65826 Checksum: 302
Satellite: OKEAN-4 Catalog number: 23317 Epoch time: 06257.72426294 Element set: 50 Inclination: 082.5417 deg RA of node: 193.4876 deg Eccentricity: 0.0024088 Arg of perigee: 079.6344 deg Mean anomaly: 280.7603 deg Mean motion: 14.82397138 rev/day Decay rate: 2.61e-06 rev/day^2 Epoch rev: 64324 Checksum: 311
Satellite: NOAA-14 Catalog number: 23455 Epoch time: 06257.26590238 Element set: 273 Inclination: 099.0288 deg RA of node: 316.4531 deg Eccentricity: 0.0009773 Arg of perigee: 156.1219 deg Mean anomaly: 204.0402 deg Mean motion: 14.13682771 rev/day Decay rate: -4.0e-07 rev/day^2 Epoch rev: 60365 Checksum: 289
Satellite: SICH-1 Catalog number: 23657 Epoch time: 06257.71160544 Element set: 853 Inclination: 082.5312 deg RA of node: 334.4107 deg Eccentricity: 0.0025687 Arg of perigee: 070.1146 deg Mean anomaly: 290.2867 deg Mean motion: 14.81389541 rev/day Decay rate: 1.10e-06 rev/day^2 Epoch rev: 59524 Checksum: 293
Satellite: NOAA-15 Catalog number: 25338 Epoch time: 06257.43338826 Element set: 660 Inclination: 098.5218 deg RA of node: 257.0832 deg Eccentricity: 0.0011528 Arg of perigee: 111.9088 deg Mean anomaly: 248.3327 deg Mean motion: 14.24602073 rev/day Decay rate: -3.9e-07 rev/day^2 Epoch rev: 43342 Checksum: 299
Satellite: RESURS Catalog number: 25394 Epoch time: 06257.79485974 Element set: 458 Inclination: 098.4826 deg RA of node: 317.6228 deg Eccentricity: 0.0000826 Arg of perigee: 306.7954 deg Mean anomaly: 053.3149 deg Mean motion: 14.24111701 rev/day Decay rate: 1.0e-07 rev/day^2 Epoch rev: 42515 Checksum: 304
